Date String (YYYY-MM-DD hh:mm:ss) UTC,Instrument flags,Ambient pressure (hPa),Sample flow (lpm),Bypass flow (lpm),Sample temperature (°C),Ambient temperature (°C),ASC tube jacket temperature (°C),LED temperature (°C),Box temperature (°C),Sample RH (%),Span deviation,Mass concentration (μg/m³),Mass concentration (μg/m³),Mass concentration (μg/m³)
DateTimeUTC,F1_M11,P_M11,Q1_M11,Q2_M11,T1_M11,T2_M11,T3_M11,T4_M11,T5_M11,U1_M11,ZSPAN_M11,X0_M11,X2_M11,X1_M11
2023-04-05 10:00:00,,0825.2,5.01,0.00,22.4,21.3,00.0,30.7,23.8,09.3,0000.9,0006.80,0004.67,0004.57
2023-04-05 10:01:00,,0825.2,5.01,0.00,22.3,21.1,00.0,30.7,23.7,09.4,0001.2,0006.81,0004.68,0004.57
2023-04-05 10:02:00,,0825.2,4.99,0.00,22.3,20.8,00.0,30.7,23.6,09.4,0000.6,0006.87,0004.68,0004.56
2023-04-05 10:03:00,,0825.2,5.00,0.00,22.2,20.6,00.0,30.7,23.6,09.4,0000.6,0006.87,0004.67,0004.55
2023-04-05 10:04:00,,0825.2,5.00,0.00,22.2,20.5,00.0,30.7,23.6,09.4,0000.9,0006.91,0004.68,0004.54
2023-04-05 10:05:00,,0825.2,5.01,0.00,22.2,20.9,00.0,30.6,23.8,09.4,0000.8,0006.87,0004.67,0004.54
2023-04-05 10:06:00,,0825.3,5.00,0.00,22.4,22.0,00.0,30.6,24.2,09.3,0001.3,0006.86,0004.69,0004.56
2023-04-05 10:07:00,,0825.2,5.00,0.00,22.5,22.9,00.0,30.6,24.5,09.2,0001.0,0006.89,0004.69,0004.57
2023-04-05 10:08:00,,0825.2,5.00,0.00,22.6,22.9,00.0,30.7,24.4,09.2,0000.7,0006.88,0004.68,0004.56
2023-04-05 10:09:00,,0825.2,4.99,0.00,22.6,22.6,00.0,30.7,24.2,09.2,0000.9,0007.01,0004.71,0004.57
2023-04-05 10:10:00,,0825.2,5.00,0.00,22.5,22.1,00.0,30.8,24.0,09.3,0001.0,0007.08,0004.73,0004.57
2023-04-05 10:11:00,,0825.3,5.00,0.00,22.4,21.7,00.0,30.8,23.8,09.3,0001.1,0006.98,0004.72,0004.57
2023-04-05 10:12:00,,0825.2,5.01,0.00,22.4,21.3,00.0,30.8,23.7,09.3,0000.5,0006.95,0004.72,0004.58
2023-04-05 10:13:00,,0825.2,5.01,0.00,22.3,20.9,00.0,30.7,23.7,09.3,0000.5,0006.91,0004.72,0004.59
2023-04-05 10:14:00,,0825.2,5.00,0.00,22.3,20.7,00.0,30.7,23.6,09.4,0000.6,0006.97,0004.76,0004.60
2023-04-05 10:15:00,,0825.3,4.99,0.00,22.3,20.5,00.0,30.7,23.6,09.4,0000.6,0007.11,0004.80,0004.62
2023-04-05 10:16:00,,0825.3,5.00,0.00,22.3,21.2,00.0,30.6,23.9,09.4,0000.8,0007.24,0004.83,0004.64
2023-04-05 10:17:00,,0825.3,5.00,0.00,22.5,22.3,00.0,30.6,24.3,09.3,0000.5,0007.17,0004.85,0004.64
2023-04-05 10:18:00,,0825.4,5.00,0.00,22.6,23.0,00.0,30.7,24.6,09.2,0000.8,0007.25,0004.87,0004.65
2023-04-05 10:19:00,,0825.4,4.99,0.00,22.6,22.8,00.0,30.7,24.3,09.2,0001.2,0007.30,0004.90,0004.67
2023-04-05 10:20:00,,0825.3,5.01,0.00,22.6,22.4,00.0,30.8,24.1,09.2,0001.1,0007.28,0004.89,0004.68
2023-04-05 10:21:00,,0825.3,5.00,0.00,22.5,22.0,00.0,30.8,24.0,09.3,0001.2,0007.39,0004.89,0004.69
2023-04-05 10:22:00,,0825.3,5.00,0.00,22.5,21.6,00.0,30.8,23.9,09.3,0001.4,0007.50,0004.92,0004.70
2023-04-05 10:23:00,,0825.3,4.99,0.00,22.4,21.3,00.0,30.8,23.8,09.3,0001.3,0007.56,0004.95,0004.72
2023-04-05 10:24:00,,0825.3,5.00,0.00,22.4,21.0,00.0,30.8,23.8,09.3,0001.2,0007.58,0004.96,0004.72
2023-04-05 10:25:00,,0825.4,4.99,0.00,22.3,20.8,00.0,30.8,23.7,09.4,0001.3,0008.02,0004.94,0004.72
2023-04-05 10:26:00,,0825.4,5.01,0.00,22.3,20.6,00.0,30.8,23.6,09.4,0001.7,0008.14,0004.92,0004.72
2023-04-05 10:27:00,,0825.4,5.01,0.00,22.2,20.5,00.0,30.7,23.6,09.4,0001.8,0008.10,0004.91,0004.72
2023-04-05 10:28:00,,0825.3,5.00,0.00,22.3,21.0,00.0,30.7,23.9,09.4,0001.8,0008.12,0004.91,0004.71
2023-04-05 10:29:00,,0825.4,5.01,0.00,22.4,22.1,00.0,30.6,24.3,09.4,0001.4,0008.10,0004.90,0004.71
2023-04-05 10:30:00,,0825.4,5.00,0.00,22.6,23.0,00.0,30.6,24.6,09.3,0001.1,0008.11,0004.90,0004.71
2023-04-05 10:31:00,,0825.4,4.99,0.00,22.6,22.9,00.0,30.7,24.4,09.3,0001.1,0008.13,0004.91,0004.71
2023-04-05 10:32:00,,0825.4,4.99,0.00,22.6,22.6,00.0,30.8,24.2,09.3,0001.1,0008.07,0004.91,0004.71
2023-04-05 10:33:00,,0825.4,5.00,0.00,22.6,22.2,00.0,30.8,24.1,09.3,0001.3,0008.04,0004.92,0004.70
2023-04-05 10:34:00,,0825.4,5.00,0.00,22.5,21.9,00.0,30.8,24.0,09.2,0001.4,0008.62,0004.91,0004.71
2023-04-05 10:35:00,,0825.4,5.00,0.00,22.5,21.6,00.0,30.8,24.0,09.2,0001.6,0008.65,0004.91,0004.71
2023-04-05 10:36:00,,0825.4,5.00,0.00,22.4,21.4,00.0,30.8,23.9,09.2,0001.5,0008.34,0004.94,0004.74
2023-04-05 10:37:00,,0825.4,5.00,0.00,22.4,21.1,00.0,30.8,23.9,09.2,0001.1,0008.14,0004.98,0004.75
2023-04-05 10:38:00,,0825.4,5.00,0.00,22.4,20.9,00.0,30.8,23.8,09.2,0000.9,0008.12,0004.98,0004.75
2023-04-05 10:39:00,,0825.4,5.00,0.00,22.3,20.8,00.0,30.8,23.8,09.2,0001.3,0008.08,0004.98,0004.78
2023-04-05 10:40:00,,0825.4,5.00,0.00,22.3,20.7,00.0,30.8,23.8,09.2,0002.0,0008.04,0004.99,0004.80
2023-04-05 10:41:00,,0825.5,5.02,0.00,22.4,21.3,00.0,30.7,24.1,09.2,0002.2,0008.06,0005.01,0004.82
2023-04-05 10:42:00,,0825.6,5.00,0.00,22.5,22.3,00.0,30.7,24.4,09.1,0002.3,0008.35,0005.04,0004.84
2023-04-05 10:43:00,,0825.6,4.99,0.00,22.6,23.0,00.0,30.7,24.6,09.0,0002.1,0008.49,0005.06,0004.85
2023-04-05 10:44:00,,0825.5,4.99,0.00,22.7,22.8,00.0,30.8,24.4,09.0,0002.0,0008.46,0005.06,0004.87
2023-04-05 10:45:00,,0825.6,5.00,0.00,22.6,22.5,00.0,30.8,24.3,09.0,0002.0,0007.85,0005.08,0004.89
2023-04-05 10:46:00,,0825.5,5.00,0.00,22.6,22.1,00.0,30.9,24.1,09.0,0002.4,0007.83,0005.09,0004.90
2023-04-05 10:47:00,,0825.5,5.00,0.00,22.6,21.9,00.0,30.9,24.1,09.0,0002.2,0007.97,0005.09,0004.90
2023-04-05 10:48:00,,0825.6,5.00,0.00,22.5,21.6,00.0,30.9,24.0,09.0,0002.1,0008.20,0005.07,0004.90
2023-04-05 10:49:00,,0825.6,5.00,0.00,22.5,21.3,00.0,30.9,24.0,09.0,0001.9,0008.27,0005.10,0004.92
2023-04-05 10:50:00,,0825.6,5.01,0.00,22.5,21.1,00.0,30.9,23.9,09.0,0001.8,0008.34,0005.13,0004.93
2023-04-05 10:51:00,,0825.6,5.00,0.00,22.4,21.0,00.0,30.9,23.9,09.0,0001.7,0008.37,0005.15,0004.93
2023-04-05 10:52:00,,0825.7,5.00,0.00,22.4,20.8,00.0,30.8,23.8,09.1,0001.9,0008.36,0005.15,0004.95
2023-04-05 10:53:00,,0825.7,5.01,0.00,22.4,21.2,00.0,30.8,24.0,09.1,0001.9,0008.13,0005.15,0004.95
2023-04-05 10:54:00,,0825.6,5.00,0.00,22.6,22.1,00.0,30.7,24.4,09.0,0002.0,0007.99,0005.18,0004.98
2023-04-05 10:55:00,,0825.7,5.01,0.00,22.7,23.0,00.0,30.8,24.7,08.9,0001.8,0008.06,0005.21,0005.00
2023-04-05 10:56:00,,0825.7,4.99,0.00,22.8,23.0,00.0,30.9,24.6,08.9,0001.4,0008.05,0005.21,0005.01
2023-04-05 10:57:00,,0825.7,4.99,0.00,22.7,22.7,00.0,30.9,24.4,08.9,0001.1,0008.10,0005.22,0005.02
2023-04-05 10:58:00,,0825.7,5.01,0.00,22.7,22.4,00.0,30.9,24.3,08.9,0001.2,0008.06,0005.25,0005.04
2023-04-05 10:59:00,,0825.7,5.00,0.00,22.7,22.0,00.0,31.0,24.2,08.9,0001.3,0007.76,0005.27,0005.07
